TimeMDT,TemperatureF,Dew PointF,Humidity,Sea Level PressureIn,VisibilityMPH,Wind Direction,Wind SpeedMPH,Gust SpeedMPH,PrecipitationIn,Events,Conditions,WindDirDegrees,DateUTC
12:22 AM,64.4,57.2,77,30.03,10.0,East,18.4,27.6,N/A,,Scattered Clouds,80,2013-06-19 06:22:00
12:53 AM,63.0,57.0,81,29.83,10.0,East,18.4,-,N/A,,Mostly Cloudy,100,2013-06-19 06:53:00
1:53 AM,62.1,57.9,86,29.83,10.0,ESE,11.5,-,N/A,,Clear,110,2013-06-19 07:53:00
2:53 AM,62.1,59.0,90,29.82,10.0,ESE,8.1,-,N/A,,Mostly Cloudy,120,2013-06-19 08:53:00
3:53 AM,63.0,59.0,87,29.80,10.0,SSE,12.7,-,N/A,,Clear,150,2013-06-19 09:53:00
4:53 AM,64.0,59.0,84,29.79,10.0,SSE,9.2,-,N/A,,Clear,150,2013-06-19 10:53:00
5:53 AM,62.1,57.9,86,29.82,10.0,SW,9.2,-,N/A,,Clear,220,2013-06-19 11:53:00
6:53 AM,60.1,57.0,90,29.82,10.0,SW,9.2,-,N/A,,Clear,220,2013-06-19 12:53:00
7:53 AM,64.0,59.0,84,29.82,10.0,SW,10.4,-,N/A,,Clear,230,2013-06-19 13:53:00
8:53 AM,66.0,60.1,81,29.82,10.0,West,6.9,-,N/A,,Clear,270,2013-06-19 14:53:00
9:53 AM,70.0,60.1,71,29.80,10.0,Calm,Calm,-,N/A,,Clear,0,2013-06-19 15:53:00
10:53 AM,73.9,61.0,64,29.76,10.0,SSW,3.5,-,N/A,,Clear,210,2013-06-19 16:53:00
11:53 AM,79.0,62.1,56,29.72,10.0,Variable,3.5,-,N/A,,Clear,0,2013-06-19 17:53:00
12:53 PM,82.0,63.0,52,29.68,10.0,North,6.9,-,N/A,,Clear,10,2013-06-19 18:53:00
1:53 PM,88.0,62.1,42,29.63,10.0,Variable,6.9,-,N/A,,Clear,0,2013-06-19 19:53:00
2:53 PM,91.9,53.1,27,29.59,10.0,SSE,19.6,26.5,N/A,,Clear,160,2013-06-19 20:53:00
3:53 PM,90.0,54.0,29,29.57,10.0,South,23.0,35.7,N/A,,Clear,180,2013-06-19 21:53:00
4:53 PM,84.9,55.9,37,29.57,10.0,SSE,23.0,33.4,N/A,,Clear,160,2013-06-19 22:53:00
5:53 PM,84.9,55.9,37,29.55,10.0,North,-9999.0,-,0.00,,Partly Cloudy,0,2013-06-19 23:53:00
6:53 PM,88.0,55.9,34,29.55,10.0,North,-9999.0,-,N/A,,Clear,0,2013-06-20 00:53:00
7:53 PM,82.9,59.0,44,29.56,10.0,South,16.1,-,N/A,,Clear,170,2013-06-20 01:53:00
8:53 PM,82.0,60.1,47,29.58,10.0,North,-9999.0,-,N/A,,Clear,0,2013-06-20 02:53:00
9:53 PM,80.1,57.9,47,29.60,10.0,North,-9999.0,-,N/A,,Clear,0,2013-06-20 03:53:00
10:53 PM,79.0,59.0,50,29.61,10.0,North,-9999.0,-,N/A,,Overcast,0,2013-06-20 04:53:00
11:53 PM,78.1,54.0,43,29.61,10.0,North,-9999.0,-,N/A,,Overcast,0,2013-06-20 05:53:00